Regional Weather Roundup
Issued by NWS

Home | Current Version | Previous Version | Text Only | Print | Product List | Glossary On
Versions: 1 2 3 4 5 6 7 8 9 10 11 12 13 14 15 16 17 18 19 20 21 22 23 24 25 26 27
000
ASUS42 KKEY 030510
RWRKEY

FLORIDA REGIONAL WEATHER ROUNDUP FOR THE FLORIDA KEYS
NATIONAL WEATHER SERVICE KEY WEST FLORIDA
1200 AM EST SAT DEC 03 2016

...SOUTH FLORIDA AND THE KEYS...

CITY           SKY/WX    TMP DP  RH WIND       PRES   REMARKS
FORT MYERS     CLEAR     65  53  65 NE12      30.11F
SW REGIONAL AP CLEAR     64  54  69 NE10      30.12F
NAPLES         CLEAR     66  58  75 NE14      30.09F
MIAMI          PTCLDY    75  68  78 NE7       30.08F
WEST KENDALL   CLEAR     76  69  79 NE6       30.07F
HOMESTEAD      MOCLDY    77  73  88 NE12      30.06F
MARATHON       MOCLDY    79  75  87 NE8       30.04F
BOCA CHICA NAS CLEAR     75  73  93 NE9       30.05S
KEY WEST INTL  PTCLDY    77  76  96 NE9       30.05S

...INTERNATIONAL WEATHER...

CITY           SKY/WX    TMP DP  RH WIND       PRES   REMARKS
NASSAU BAHAMAS PTCLDY    77  72  83 VRB3      30.05F
CANCUN MEXICO  PTCLDY    73  73 100 CALM      29.99F
COZUMEL MEXICO PTCLDY    72  70  94 CALM      29.98S

ADJACENT COASTAL WATERS...

STATION/POSITION TIME  SKY/WX   TEMP    WIND        PRES    WAVE
                                AIR SEA DIR/SP/G            HT/PER
                 (UTC)          (F)     (DEG/KT/KT) (MB)    (FT/S)
PULASKI SHOAL LI 0500            76      70/ 18/ 20 1017.5F
SAND KEY         0450            77      70/ 14/ 16 1017.8F
LONG KEY         0400            78 79   70/ 12/ 14 1018.1R
FOWEY ROCKS      0500            77 78   50/ 21/ 22 1018.5F

$$




USA.gov is the U.S. government's official web portal to all federal, state and local government web resources and services.